Flag for U.S.A. Weather past 2 weeks in Portland, Maine, U.S.A.

Now
65 °F

Clear.


Feels Like: 65 °F
Forecast: 62 / 72 °F
Wind: 5 mph from Southwest

Location: Portland - Portland International Jetport

Current Time: May 28, 2015 at 4:43:59 AM

Latest Report: May 28, 2015 at 3:51 AM


Visibility: 10 mi

Pressure: 30.05 "Hg

Humidity: 87%

Dew point: 61 °F

Location of PortlandLocation

Historic Weather in Portland — Graph

°F

Portland temperature yesterday

Maximum temperature yesterday: 79 °F (at 2:51 PM)
Minimum temperature yesterday: 63 °F (at 10:51 PM)
Average temperature yesterday: 71 °F

Past Weeks' High & Low Weather Summary

 TemperatureHumidityPressure
High91 °F (May 26, 3:51 PM)100% (May 17, 1:51 AM)30.33 "Hg (May 17, 1:51 AM)
Low40 °F (May 23, 4:51 AM)21% (May 23, 1:51 PM)29.64 "Hg (May 20, 1:51 AM)
Average60 °F60%30.06 "Hg
* Reported May 13 2:51 AM — May 28 2:51 AM, Portland, Weather by CustomWeather, © 2015

Note: Actual official high and low records may vary slightly from our data, if they occured in-between our weather recording intervals... More about our weather records

Advertising

Portland weather history for previous 24 hours

 ConditionsComfort  
Time TempWeatherWind HumidityBarometerVisibility
2:51 AM
Thu, May 28
67 °FClear.6 mph81%30.05 "Hg10 mi
1:51 AM68 °FClear.5 mph82%30.05 "Hg10 mi
12:51 AM66 °FPassing clouds.6 mph84%30.05 "Hg10 mi
11:51 PM
Wed, May 27
64 °FClear.No wind84%30.06 "Hg10 mi
10:51 PM63 °FPassing clouds.5 mph84%30.04 "Hg9 mi
9:51 PM66 °FPassing clouds.6 mph81%30.06 "Hg10 mi
8:51 PM68 °FPartly sunny.6 mph78%30.03 "Hg10 mi
7:51 PM69 °FBroken clouds.12 mph76%30.01 "Hg10 mi
6:51 PM69 °FPartly sunny.13 mph76%30.00 "Hg10 mi
5:51 PM72 °FScattered clouds.17 mph71%29.99 "Hg10 mi
4:51 PM74 °FBroken clouds.15 mph64%29.99 "Hg10 mi
3:51 PM76 °FScattered clouds.16 mph62%29.99 "Hg10 mi
2:51 PM79 °FScattered clouds.13 mph58%30.03 "Hg10 mi
1:51 PM78 °FPartly sunny.15 mph60%30.05 "Hg10 mi
12:51 PM77 °FPartly sunny.12 mph60%30.07 "Hg10 mi
11:51 AM74 °FPartly sunny.12 mph64%30.09 "Hg10 mi
10:51 AM77 °FScattered clouds.8 mph60%30.09 "Hg10 mi
9:51 AM74 °FScattered clouds.9 mph64%30.10 "Hg10 mi
8:51 AM74 °FScattered clouds.7 mph69%30.11 "Hg10 mi
7:51 AM67 °FBroken clouds.7 mph76%30.11 "Hg10 mi
6:51 AM68 °FMostly cloudy.No wind68%30.11 "Hg10 mi
5:51 AM68 °FPassing clouds.6 mph70%30.09 "Hg10 mi
4:51 AM69 °FPassing clouds.3 mph70%30.09 "Hg10 mi
Weather by CustomWeather, © 2015

See weather overviewHow to use our weather pages